Tracking 25648 objects as of 16-May-2022
HD Live streaming from Space Station
objects crossing your sky now

COSMOS 2251 DEB

Track COSMOS 2251 DEB now!
10-day predictions


NORAD ID: 33795
Int'l Code: 1993-036AL
Perigee: 623.8 km
Apogee: 730.5 km
Inclination: 74.0 °
Period: 98.1 minutes
Semi major axis: 7048 km
RCS: 0.0825 m2 (small)
Launch date: June 16, 1993
Source: Commonwealth of Independent States (former USSR) (CIS)
Launch site: PLESETSK MISSILE AND SPACE COMPLEX (PKMTR)

Note: This is SATELLITE DEBRIS
aabbcc
Your satellite tracking list
Your tracking list is empty




NASA's NSSDC Master Catalog

Two Line Element Set (TLE):
1 33795U 93036AL  22135.75612293  .00003917  00000-0  67201-3 0  9995
2 33795  74.0436 132.6453 0075706 201.2932 332.0449 14.67194371706800
Source of the keplerian elements: AFSPC